Temperature
11 11 11 12 12 12 12 12 12 12 12 12 12 12 12 13 13 12 12 12 13 13 12 12 12 12 12 12 11 11 11 11 11 11 11 11 11 10 10 10 10 9 9
10 10 10 11 11 11 11 12 11 12 12 12 12 12 12 12 12 12 12 12 12 12 12 12 12 12 12 11 11 11 11 11 11 11 11 11 10 10 10 10 9 9 9
10 10 10 10 10 11 11 11 11 11 11 11 11 11 11 12 12 12 12 12 12 12 12 12 12 12 12 11 11 11 11 11 11 11 10 10 10 10 10 10 9 9 9
9 9 9 9 10 10 10 10 10 10 10 10 11 11 11 11 11 11 11 12 12 12 12 12 12 12 12 11 11 11 11 11 11 10 10 10 10 10 10 9 9 9 9
8 8 8 9 9 9 9 9 9 10 10 10 10 10 10 11 11 11 11 11 11 11 11 11 12 12 11 11 11 11 11 10 10 10 10 10 10 9 9 9 9 9 8
8 8 8 8 8 8 9 9 9 9 9 10 10 10 10 10 10 10 11 11 11 11 11 11 11 11 11 11 11 11 10 10 10 10 10 10 9 9 9 9 9 8 8
7 7 7 8 8 8 8 8 8 9 9 9 9 9 9 10 10 10 10 10 10 10 11 11 11 11 11 11 11 11 10 10 10 10 10 9 9 9 9 9 8 8 8
7 7 7 7 7 7 7 8 8 8 8 8 8 8 8 9 9 9 10 10 10 10 10 11 11 11 11 11 11 11 11 10 10 10 10 9 9 9 9 8 8 8 8
6 6 7 7 7 7 7 7 7 7 8 8 8 8 8 8 8 9 9 10 10 10 10 10 10 10 11 11 11 11 10 10 10 10 10 9 9 9 8 8 8 8 7
6 6 6 6 6 6 7 7 7 7 7 7 8 8 8 8 8 8 9 9 9 9 9 10 10 10 10 10 10 11 10 10 10 10 10 9 9 9 8 8 8 7 7
5 6 6 6 6 6 6 6 6 7 7 7 7 7 8 8 8 8 7 8 9 9 9 9 10 10 10 10 10 10 10 10 10 10 9 9 9 9 8 8 8 7 7
5 5 5 5 6 6 6 6 6 6 6 6 7 7 7 7 7 8 7 7 8 8 9 9 9 9 10 10 10 10 10 10 10 10 9 9 9 9 8 8 8 7 7
5 5 5 5 5 5 5 5 6 6 6 6 6 7 7 7 7 7 7 7 7 7 8 8 9 9 9 9 10 10 10 9 9 9 9 9 9 9 8 8 8 7 7
4 5 5 5 5 5 5 5 5 5 6 6 6 6 6 7 7 7 7 7 6 7 7 7 8 8 9 9 9 9 9 9 9 9 9 9 9 9 8 8 7 7 7
4 4 4 4 4 4 5 5 5 5 5 5 5 6 6 6 6 7 7 7 7 6 6 7 7 8 8 9 9 9 9 9 9 9 9 9 8 8 8 8 7 7 6
4 4 4 4 4 4 4 4 4 4 5 5 5 5 6 6 6 6 7 7 7 7 6 7 7 8 8 8 8 9 9 9 9 9 8 8 8 8 8 7 7 6 6
3 4 4 4 4 4 4 4 4 4 4 5 5 5 5 6 6 6 6 6 7 7 7 7 7 7 7 8 8 8 8 8 8 8 8 8 8 8 7 7 6 6 5
3 3 3 3 3 4 4 4 4 4 4 4 5 5 5 5 6 6 6 6 6 7 7 7 7 7 7 7 7 8 8 8 8 8 8 8 7 7 7 7 6 6 5
3 3 3 3 3 3 3 4 4 4 4 4 4 5 5 5 5 6 6 6 6 6 7 7 6 6 7 7 7 7 7 7 8 8 8 7 7 7 6 6 6 5 5
2 2 2 3 3 3 3 3 3 4 4 4 4 4 5 5 5 5 6 6 6 6 6 6 6 6 6 6 7 7 7 7 7 7 7 7 7 6 6 5 5 5 4
2 2 2 3 3 3 3 3 3 3 3 4 4 4 5 5 5 5 5 6 6 6 6 6 6 6 6 6 6 7 7 7 7 7 7 6 6 6 6 5 5 4 4
2 2 2 2 2 2 3 3 3 3 3 4 4 4 4 4 5 5 5 6 6 6 6 6 6 6 6 6 6 6 6 6 6 6 6 6 6 5 5 5 4 4 3
2 2 2 2 2 2 2 2 3 3 3 4 4 4 4 4 4 4 5 5 5 6 6 7 6 6 6 7 6 6 6 6 6 6 6 5 5 5 5 4 4 3 2
1 1 1 2 2 2 2 2 3 3 3 4 4 4 4 4 4 4 4 5 5 5 6 6 6 7 7 6 6 6 6 6 5 5 5 5 5 4 4 4 3 3 2
1 1 1 2 2 2 2 2 2 3 3 4 4 4 4 4 4 4 4 4 5 5 5 5 6 6 6 6 6 6 5 5 5 5 5 4 4 4 3 3 2 2 2
1 1 1 1 1 2 2 2 2 2 3 3 3 4 4 4 4 4 4 4 4 5 5 5 5 5 5 5 5 6 6 5 5 4 4 4 4 3 3 2 2 1 1
Wind_Speed
2 2 2 2 2 2 3 3 4 5 5 6 6 7 7 6 7 8 10 16 18 18 19 19 19 18 17 16 15 14 13 12 12 11 9 8 6 5 4 3 2 1 2
2 2 2 3 3 2 3 4 4 4 4 5 6 6 7 6 7 8 10 13 16 18 19 19 19 19 18 18 17 16 14 13 12 11 10 8 7 6 4 4 2 1 1
2 3 2 3 3 3 4 4 4 3 4 4 5 6 5 6 6 7 9 11 12 16 19 20 19 19 19 18 18 17 16 15 13 12 11 9 8 7 5 4 3 1 1
3 3 3 3 3 3 3 3 3 3 4 4 4 5 4 5 7 7 8 10 11 12 15 19 20 19 19 19 19 18 17 16 15 14 12 11 9 8 6 5 4 3 2
4 3 3 3 3 3 3 4 3 3 4 4 4 4 4 4 5 6 7 8 10 11 12 16 19 19 19 19 19 18 18 17 16 15 13 12 10 9 8 6 5 4 3
4 3 3 3 3 3 3 4 4 4 4 4 4 4 4 4 4 5 7 7 8 11 12 12 14 15 18 19 19 19 18 18 17 16 14 13 12 10 9 7 6 5 4
5 4 4 4 4 4 5 5 4 5 4 3 2 2 3 4 5 6 6 6 7 10 12 13 13 13 13 17 19 19 19 18 17 17 15 14 13 12 10 8 7 6 5
5 6 5 5 5 4 5 5 4 4 4 4 3 3 2 2 4 6 6 7 7 7 9 12 13 13 12 12 14 18 18 18 18 17 16 15 14 13 11 9 8 7 6
6 6 7 6 6 6 6 6 6 6 5 5 5 4 3 3 2 3 5 6 7 6 7 9 11 12 13 13 13 16 18 18 18 18 17 16 15 14 12 10 9 8 6
8 8 8 7 7 6 7 7 7 6 6 6 6 5 4 3 3 2 3 5 6 7 7 7 9 11 13 13 14 16 18 18 18 18 17 16 15 14 13 12 10 8 7
8 9 9 8 8 7 8 8 7 7 7 7 6 5 4 4 4 4 5 5 4 5 6 7 7 9 12 13 13 15 18 18 18 18 17 17 16 15 13 12 9 8 7
7 8 9 9 9 8 9 9 9 9 8 8 7 6 6 5 6 5 6 7 6 5 5 6 7 7 9 12 15 17 18 17 17 16 15 15 15 14 12 11 9 7 7
7 8 9 9 8 9 9 9 10 10 10 10 9 8 7 7 6 5 6 5 4 3 3 4 5 7 9 10 13 17 17 17 16 15 14 14 13 13 12 10 9 8 7
8 8 9 9 10 10 11 10 10 10 10 10 11 10 7 8 7 6 6 6 5 3 3 4 4 6 8 10 12 16 15 17 15 14 14 14 14 13 12 10 9 8 6
9 10 9 10 9 10 11 11 10 11 10 10 10 10 9 8 7 7 7 7 7 6 6 5 4 5 7 9 13 13 12 16 16 15 14 14 14 13 12 10 9 7 6
9 9 9 10 10 11 11 11 11 11 12 11 9 10 10 8 7 7 7 7 6 6 6 5 4 4 6 7 12 12 13 16 16 16 15 14 14 13 12 11 9 7 6
9 9 9 9 10 11 11 11 12 12 13 12 11 11 11 10 8 8 7 7 7 6 7 5 4 4 6 7 8 9 11 11 12 15 15 14 14 13 12 11 9 8 6
9 9 9 9 10 11 11 12 13 13 13 13 12 12 12 10 10 9 8 9 8 7 7 8 5 5 6 7 7 7 7 8 9 12 14 13 13 13 12 11 10 8 6
8 8 9 10 11 11 11 12 13 13 13 13 13 13 12 12 11 10 10 9 7 7 7 8 7 5 4 5 6 5 6 5 7 10 11 12 13 13 12 11 10 8 7
8 8 9 10 10 10 10 10 12 12 12 12 12 12 12 13 12 11 10 10 9 8 8 8 7 6 5 5 6 6 5 4 4 6 7 8 10 11 11 11 10 9 7
8 7 8 9 8 8 8 8 9 11 11 12 12 11 11 12 14 12 11 10 10 9 8 8 8 6 6 7 7 5 5 4 3 3 4 4 6 6 7 9 9 9 7
6 6 7 7 7 7 10 12 10 8 9 11 11 10 10 11 12 13 14 15 14 12 11 9 8 10 9 7 6 7 6 5 3 4 4 3 4 4 5 6 8 9 8
6 7 6 7 6 7 11 11 12 8 8 9 10 9 9 9 10 8 9 10 11 14 14 11 11 11 10 9 9 8 8 6 4 6 5 3 3 3 4 5 9 9 8
6 6 6 6 5 7 11 12 11 7 7 8 9 10 9 9 9 8 7 7 7 7 9 9 9 9 8 9 10 9 8 4 4 3 4 3 3 2 3 4 8 8 7
6 6 6 6 6 8 11 11 10 5 6 7 8 8 9 9 10 10 8 7 7 5 5 8 8 8 9 10 10 8 7 6 4 3 2 3 3 2 2 2 4 6 6
6 6 6 6 6 6 9 9 8 4 5 5 5 6 9 10 11 10 9 9 9 8 7 6 6 6 7 8 10 9 9 8 5 3 3 3 3 3 2 1 2 3 4
Wind_Direction
265 266 259 260 255 242 210 219 222 217 213 207 214 216 211 205 194 182 183 187 190 196 197 195 191 188 187 187 187 184 183 181 178 173 169 166 164 160 156 148 128 83 31
259 262 255 257 253 242 230 228 235 225 217 212 221 220 213 203 197 185 180 188 193 196 200 200 198 194 193 191 190 189 188 186 182 176 176 177 175 172 168 165 163 135 1
267 263 259 259 252 253 243 239 238 234 226 220 223 228 218 209 199 189 183 186 193 199 202 202 201 199 198 196 194 192 191 187 185 184 185 185 185 182 182 187 195 216 295
274 259 250 256 264 254 237 240 231 232 228 220 222 227 228 220 205 196 186 186 190 195 201 203 203 203 202 200 198 194 192 191 190 190 190 190 191 190 194 202 209 234 273
264 256 247 251 266 247 239 246 233 225 230 228 223 225 224 224 216 206 198 193 191 189 191 199 202 204 203 202 201 198 196 195 194 196 196 196 195 198 200 207 216 233 258
258 256 252 247 250 246 244 237 236 233 229 223 234 236 229 227 224 214 208 200 192 191 192 193 196 202 204 203 204 202 201 199 199 199 199 199 200 203 203 208 216 229 247
255 247 256 246 242 241 241 241 239 231 227 217 210 230 250 228 220 215 211 203 200 196 193 193 191 192 197 202 204 205 205 204 203 200 201 203 204 205 205 209 216 225 240
251 256 243 239 238 242 243 239 240 238 229 205 196 191 237 253 236 224 211 208 206 201 200 196 192 189 188 189 196 202 207 207 205 203 203 205 205 205 209 213 217 225 236
252 249 245 238 234 231 237 237 228 236 228 218 203 196 192 216 240 239 223 215 205 205 205 196 192 190 190 187 189 196 202 206 207 207 206 206 207 209 211 215 218 223 232
250 244 242 238 232 229 231 235 233 224 224 220 221 229 227 201 203 233 234 222 210 210 210 201 193 191 189 187 189 192 197 202 208 210 209 208 210 211 212 216 215 219 228
250 243 238 235 232 228 226 228 230 223 222 221 222 221 230 219 211 210 227 223 228 215 210 206 197 192 189 188 188 190 192 198 206 208 211 211 212 213 212 211 210 218 228
251 241 236 233 231 228 226 226 226 225 225 224 224 221 214 208 206 209 215 212 224 231 218 212 203 196 188 187 190 188 190 195 202 205 209 212 212 210 209 207 208 216 225
259 245 241 236 235 230 228 227 226 226 224 223 220 223 225 224 215 219 210 216 230 252 245 235 211 194 190 184 186 183 188 191 197 200 200 201 202 202 203 202 204 211 221
257 251 242 241 241 234 232 228 229 227 226 223 225 221 226 228 216 208 208 205 219 250 248 245 225 202 191 183 183 180 187 188 190 193 195 193 196 199 197 194 198 205 215
264 255 248 245 243 239 233 230 231 229 226 224 223 221 224 229 219 209 206 200 206 228 242 237 224 207 188 177 177 180 182 186 188 189 191 191 192 193 191 190 191 198 207
266 261 256 252 249 241 235 232 232 227 227 226 222 221 224 227 218 205 203 212 208 212 238 238 239 204 190 183 181 179 182 183 188 190 190 191 190 189 187 186 190 193 202
263 260 257 255 253 247 236 231 232 226 226 225 224 223 223 219 215 205 201 208 209 205 227 239 238 196 194 186 177 177 174 178 185 188 190 192 189 187 185 185 188 191 198
263 259 257 257 256 253 239 231 232 229 225 224 223 222 222 219 215 207 203 208 210 206 210 217 222 200 195 185 175 175 173 176 179 184 186 189 186 184 185 186 187 189 194
268 264 261 258 257 252 246 234 231 230 226 223 221 221 219 213 217 212 205 207 207 206 201 206 213 203 197 182 173 170 168 168 169 177 180 185 186 185 186 186 185 183 184
269 267 265 262 257 254 253 243 231 227 226 226 223 220 217 215 215 212 209 206 202 197 194 198 197 195 194 182 172 173 175 169 164 162 171 180 182 183 184 185 180 178 180
276 273 272 266 257 252 252 246 232 227 223 226 224 219 220 219 218 217 211 201 195 195 192 191 194 194 193 184 187 180 176 155 147 155 152 165 164 166 175 177 176 176 180
277 279 273 267 259 258 261 257 253 232 227 227 223 220 220 217 218 225 220 211 203 199 196 194 201 196 199 193 182 172 165 164 187 166 148 168 159 167 163 166 172 173 177
277 276 274 271 266 264 263 262 264 252 236 228 220 219 222 219 216 207 209 208 209 207 203 200 197 202 197 190 179 178 176 177 184 163 144 164 155 162 152 164 169 171 174
275 274 275 275 271 271 272 267 267 259 246 229 224 217 213 211 209 198 196 201 204 206 195 193 196 198 194 184 182 178 167 140 108 133 137 149 150 148 137 153 167 167 170
277 273 272 273 270 268 274 273 271 257 248 237 226 216 209 206 202 196 192 194 193 190 170 169 172 171 169 172 165 152 154 155 153 159 134 129 134 115 111 139 155 162 165
281 280 275 270 273 270 271 277 280 259 252 240 223 213 211 207 199 193 192 188 185 182 167 156 150 148 157 158 165 175 172 168 154 158 164 125 128 122 114 96 137 151 153
Height
1469 1469 1470 1472 1473 1473 1474 1475 1477 1478 1479 1480 1482 1484 1485 1487 1489 1490 1493 1495 1497 1499 1501 1503 1504 1506 1507 1509 1510 1512 1513 1514 1515 1516 1516 1517 1518 1518 1518 1518 1518 1518 1517
1465 1466 1466 1467 1468 1469 1470 1471 1472 1473 1475 1476 1477 1480 1481 1483 1484 1486 1488 1490 1493 1495 1497 1499 1501 1502 1504 1506 1507 1509 1510 1511 1512 1513 1514 1515 1516 1516 1516 1516 1516 1516 1515
1461 1462 1462 1463 1464 1466 1466 1467 1468 1469 1470 1471 1473 1475 1476 1478 1480 1481 1484 1486 1488 1490 1492 1495 1497 1498 1501 1502 1504 1506 1507 1508 1509 1510 1511 1512 1513 1513 1514 1514 1514 1514 1513
1457 1457 1458 1459 1460 1461 1462 1463 1463 1464 1465 1466 1468 1470 1472 1473 1475 1476 1478 1481 1483 1485 1487 1490 1492 1494 1497 1499 1500 1502 1503 1505 1506 1507 1508 1509 1510 1510 1511 1511 1511 1511 1511
1453 1453 1453 1454 1456 1456 1457 1458 1459 1460 1460 1461 1463 1465 1467 1468 1469 1471 1473 1475 1478 1480 1482 1485 1488 1490 1492 1494 1496 1498 1499 1501 1503 1504 1505 1506 1507 1508 1508 1508 1508 1508 1508
1448 1449 1449 1450 1451 1452 1452 1453 1454 1455 1456 1457 1458 1460 1462 1463 1465 1466 1468 1470 1473 1475 1478 1480 1482 1485 1487 1489 1492 1494 1495 1497 1498 1500 1502 1503 1503 1504 1505 1505 1505 1505 1505
1444 1444 1444 1445 1446 1447 1447 1448 1449 1450 1450 1452 1454 1455 1457 1459 1460 1461 1463 1465 1467 1470 1472 1475 1477 1479 1482 1485 1487 1489 1491 1493 1494 1496 1498 1499 1500 1501 1501 1502 1502 1502 1502
1439 1439 1439 1440 1441 1442 1442 1443 1444 1445 1445 1447 1449 1450 1451 1454 1455 1457 1458 1460 1462 1464 1466 1469 1471 1474 1476 1479 1481 1484 1486 1488 1490 1492 1493 1495 1496 1497 1498 1498 1498 1498 1498
1434 1434 1434 1435 1435 1436 1436 1438 1439 1440 1440 1442 1444 1446 1446 1446 1449 1451 1453 1455 1457 1459 1461 1463 1465 1468 1471 1473 1476 1478 1481 1483 1486 1487 1489 1490 1492 1493 1494 1494 1494 1494 1494
1428 1428 1428 1428 1429 1430 1430 1432 1433 1435 1436 1436 1438 1440 1442 1441 1444 1445 1448 1450 1452 1453 1456 1457 1459 1462 1465 1468 1470 1473 1476 1478 1481 1483 1484 1486 1488 1489 1489 1490 1490 1490 1490
1422 1422 1422 1422 1422 1423 1424 1425 1427 1429 1430 1431 1432 1434 1435 1437 1438 1440 1441 1443 1446 1448 1450 1452 1454 1456 1459 1462 1464 1467 1470 1473 1476 1478 1480 1481 1483 1484 1485 1486 1486 1486 1486
1414 1414 1414 1415 1415 1416 1417 1418 1420 1421 1423 1425 1426 1428 1428 1429 1431 1434 1436 1438 1440 1442 1444 1446 1448 1451 1453 1456 1458 1461 1464 1467 1470 1473 1475 1477 1478 1479 1480 1481 1482 1482 1482
1407 1406 1407 1407 1407 1408 1410 1412 1413 1414 1416 1417 1419 1421 1423 1424 1427 1429 1431 1433 1435 1436 1438 1440 1442 1445 1447 1450 1452 1455 1459 1462 1465 1467 1469 1471 1473 1474 1475 1476 1477 1477 1477
1399 1399 1399 1399 1400 1401 1402 1404 1405 1406 1408 1410 1412 1414 1416 1418 1420 1422 1425 1428 1429 1430 1432 1433 1436 1439 1441 1443 1446 1450 1453 1456 1459 1461 1464 1466 1468 1469 1470 1471 1472 1472 1472
1392 1391 1391 1392 1392 1393 1394 1395 1396 1398 1400 1402 1404 1406 1409 1411 1413 1416 1419 1421 1423 1424 1425 1427 1430 1432 1434 1437 1440 1444 1447 1450 1453 1456 1458 1460 1462 1464 1465 1465 1466 1467 1467
1385 1384 1383 1383 1383 1384 1385 1387 1388 1389 1392 1394 1397 1399 1401 1404 1406 1409 1412 1415 1417 1418 1419 1421 1423 1425 1429 1432 1435 1438 1441 1445 1448 1450 1452 1454 1456 1458 1459 1460 1461 1462 1462
1378 1377 1376 1375 1375 1375 1377 1378 1379 1381 1383 1385 1388 1391 1394 1397 1399 1401 1404 1408 1410 1413 1413 1415 1419 1421 1423 1426 1429 1432 1435 1439 1442 1445 1447 1449 1451 1453 1454 1456 1456 1457 1457
1371 1370 1369 1368 1367 1367 1368 1369 1370 1372 1374 1376 1379 1383 1386 1389 1391 1394 1397 1400 1403 1406 1408 1409 1412 1415 1417 1420 1423 1427 1430 1433 1436 1439 1442 1444 1446 1447 1449 1450 1451 1452 1452
1364 1363 1362 1361 1360 1360 1360 1360 1362 1363 1365 1368 1371 1374 1378 1381 1383 1386 1390 1393 1396 1399 1402 1404 1405 1408 1411 1415 1418 1421 1425 1428 1431 1434 1436 1439 1440 1442 1444 1445 1446 1447 1447
1358 1356 1355 1354 1353 1353 1352 1352 1353 1355 1358 1361 1364 1367 1370 1373 1375 1379 1382 1385 1389 1392 1395 1398 1400 1402 1406 1409 1412 1415 1419 1422 1425 1428 1431 1433 1436 1437 1438 1440 1441 1442 1443
1353 1351 1348 1347 1347 1347 1346 1345 1346 1348 1351 1353 1356 1359 1362 1365 1368 1371 1375 1378 1382 1385 1388 1391 1393 1396 1399 1403 1406 1409 1413 1416 1419 1423 1425 1428 1430 1432 1434 1435 1437 1438 1439
1347 1345 1343 1342 1341 1341 1341 1341 1342 1343 1344 1346 1348 1351 1355 1358 1361 1365 1368 1372 1375 1378 1381 1384 1387 1389 1393 1397 1401 1404 1408 1411 1414 1418 1420 1423 1426 1427 1429 1431 1433 1434 1435
1343 1341 1339 1338 1336 1336 1336 1336 1337 1337 1339 1340 1342 1344 1347 1351 1354 1357 1361 1365 1369 1372 1376 1378 1380 1383 1387 1391 1395 1399 1403 1406 1409 1412 1416 1418 1421 1423 1425 1427 1429 1430 1431
1339 1337 1335 1334 1332 1332 1332 1332 1333 1333 1333 1334 1336 1338 1341 1344 1347 1351 1355 1358 1362 1365 1369 1373 1376 1379 1384 1388 1391 1395 1398 1402 1406 1409 1412 1414 1416 1419 1422 1424 1425 1427 1428
1334 1333 1331 1330 1329 1328 1327 1328 1329 1329 1329 1330 1331 1332 1335 1337 1341 1345 1348 1351 1355 1359 1364 1369 1373 1376 1380 1384 1387 1391 1395 1398 1400 1403 1407 1409 1412 1415 1418 1420 1422 1423 1424
1331 1329 1327 1326 1325 1323 1323 1324 1325 1325 1325 1325 1326 1327 1329 1331 1334 1338 1342 1345 1349 1353 1359 1364 1368 1372 1375 1379 1383 1387 1391 1394 1396 1399 1402 1405 1408 1411 1414 1416 1418 1420 1421